La Grande, OR

3:21 AM PST on December 11, 2019 (GMT -0800)
La Grande-Union County

Weather History for KLGD - September, 2019

Change the Weather History Date:

Friday, September 6, 2019

  Actual Average Record
Temperature  
Mean Temperature 70 °F -  
Max Temperature 81 °F 75 °F 96 °F (1966)
Min Temperature 59 °F 44 °F 33 °F (1996)
Cooling Degree Days 5    
Growing Degree Days 20 (Base 50)    
Moisture  
Dew Point 57 °F    
Average Humidity 66    
Maximum Humidity 90    
Minimum Humidity 40    
Precipitation  
Precipitation 0.00 in - - ()
Sea Level Pressure  
Sea Level Pressure 30.47 in    
Wind  
Wind Speed 4 mph (WSW)    
Max Wind Speed 13 mph    
Max Gust Speed 21 mph    
Visibility 10 miles    
Events Rain , Thunderstorm    
Averages and records for this station are not official NWS values.
T = Trace of Precipitation, MM = Missing Value Source: NWS Daily Summary

Daily Weather History Graph

Daily Weather History Graph

Search for Another Location

Airport or City:

Astronomy

Sep. 06, 2019 Rise Set
Actual Time 6:19 AM PDT 7:20 PM PDT
Civil Twilight 5:49 AM PDT 7:50 PM PDT
Nautical Twilight 5:13 AM PDT 8:26 PM PDT
Astronomical Twilight 4:35 AM PDT 9:04 PM PDT
Moon 2:54 PM PDT (9/6) No Moon Set
Length of Visible Light 14h 01m
Length of Day
13h 00m
First Quarter, 57% of the Moon is Illuminated
Sep 6
First Quarter
Sep 13
Full
Sep 21
Last Quarter
Sep 28
New
Oct 5
First Quarter

Hourly Weather History & Observations

Time (PDT) Temp. Heat Index Dew Point Humidity Pressure Visibility Wind Dir Wind Speed Gust Speed Precip Events Conditions
12:56 AM 66.0 °F - 59.0 °F 78% 30.51 in 10.0 mi Calm Calm - 0.00 in Rain Light Rain
1:56 AM 66.0 °F - 57.9 °F 75% 30.49 in 10.0 mi WNW 3.5 mph - 0.00 in Rain Light Rain
2:56 AM 63.0 °F - 59.0 °F 87% 30.50 in 10.0 mi Calm Calm - 0.00 in   Partly Cloudy
3:56 AM 60.1 °F - 57.0 °F 90% 30.49 in 10.0 mi NNE 3.5 mph - N/A   Scattered Clouds
4:56 AM 60.1 °F - 57.0 °F 90% 30.48 in 10.0 mi NNW 6.9 mph - N/A   Scattered Clouds
5:56 AM 61.0 °F - 57.0 °F 87% 30.50 in 10.0 mi North 4.6 mph - N/A   Overcast
6:56 AM 60.1 °F - 57.0 °F 90% 30.51 in 10.0 mi WNW 4.6 mph - N/A   Partly Cloudy
7:56 AM 63.0 °F - 57.0 °F 81% 30.52 in 10.0 mi Calm Calm - N/A   Scattered Clouds
8:56 AM 64.0 °F - 59.0 °F 84% 30.52 in 10.0 mi Calm Calm - N/A   Clear
9:56 AM 66.9 °F - 60.1 °F 79% 30.52 in 10.0 mi North 4.6 mph - N/A   Partly Cloudy
10:56 AM 71.1 °F - 60.1 °F 68% 30.51 in 10.0 mi Variable 3.5 mph - N/A   Clear
11:56 AM 73.0 °F - 60.1 °F 64% 30.52 in 10.0 mi SSE 6.9 mph - N/A   Mostly Cloudy
12:56 PM 78.1 °F - 57.9 °F 50% 30.51 in 10.0 mi Variable 6.9 mph - N/A   Partly Cloudy
1:56 PM 81.0 °F 81.1 °F 57.9 °F 45% 30.49 in 10.0 mi WSW 8.1 mph - N/A   Clear
2:56 PM 79.0 °F - 57.0 °F 47% 30.48 in 10.0 mi SSE 6.9 mph - N/A   Clear
3:56 PM 81.0 °F 81.0 °F 57.0 °F 44% 30.48 in 10.0 mi West 6.9 mph - N/A   Partly Cloudy
4:56 PM 81.0 °F 81.1 °F 57.9 °F 45% 30.48 in 10.0 mi South 12.7 mph 20.7 mph N/A   Clear
5:37 PM 78.8 °F - 53.6 °F 42% 30.08 in 10.0 mi South 6.9 mph - N/A Thunderstorm Thunderstorm
5:52 PM 78.8 °F - 53.6 °F 42% 30.09 in 10.0 mi SSW 3.5 mph - N/A   Partly Cloudy
5:56 PM 79.0 °F - 53.1 °F 40% 30.48 in 10.0 mi South 4.6 mph - N/A   Partly Cloudy
6:56 PM 73.9 °F - 55.9 °F 53% 30.49 in 10.0 mi East 4.6 mph - N/A   Clear
7:56 PM 71.1 °F - 55.0 °F 57% 30.51 in 10.0 mi West 4.6 mph - N/A   Scattered Clouds
8:56 PM 66.9 °F - 55.9 °F 68% 30.52 in 10.0 mi Calm Calm - N/A   Clear
9:56 PM 64.0 °F - 54.0 °F 70% 30.52 in 10.0 mi West 5.8 mph - N/A   Clear
10:56 PM 59.0 °F - 52.0 °F 78% 30.52 in 10.0 mi SE 6.9 mph - N/A   Clear
11:56 PM 63.0 °F - 53.1 °F 70% 30.53 in 10.0 mi Calm Calm - N/A   Clear